Weather in Krasnoilsk

Ukraine / Chernovtci District     48°00′53″N   25°35′13″E
temp.,
°C
wind,
m/s
gust,
m/s
humid.,
%
clouds,
%
prec.,
mm/h
press.,
hPa
HPBL,
m
12 august, fri
fri1200:00+11wsw22910 0.0 102123
03:00+11wsw22920 0.0 102129
06:00+10w22925 0.0 102127
09:00+17wnw237417 0.0 1020302
12:00+17nnw247394 0.0 1020307
15:00+18nnw257796 0.1 1019568
18:00+18n358994 2.3 1018441
21:00+15wnw229659 3.8 101928
13 august, sat
sat1300:00+15w229661 0.0 101829
03:00+13w229751 0.0 101722
06:00+13wnw219722 0.0 101616
09:00+16wnw2392100 0.0 1015261
12:00+18nnw2385100 0.0 1014436
15:00+22nne446149 0.0 10121021
18:00+20nnw2485100 1.8 1012431
21:00+16w2295100 2.7 101234
14 august, sun
sun1400:00+15w2297100 1.8 101139
03:00+15w2297100 3.2 101046
06:00+14wnw1198100 4.0 101018
09:00+16wnw2596100 5.7 1010332
12:00+18nnw3584100 0.2 1010544
15:00+23n3363100 0.3 1009938
18:00+21n347467 0.2 1009857
21:00+17sw119399 2.6 100911
15 august, mon
mon1500:00+17w1192100 3.5 100813
03:00+15wsw119398 3.5 100811
06:00+14wsw2192100 0.0 100813
09:00+18w1181100 0.0 1008117
12:00+24e1156100 0.0 1007903
15:00+25ene2349100 0.0 10061561
18:00+17w2395100 8.3 100788
21:00+16sw229169 16.5 100837
16 august, tue
tue1600:00+15sw2290100 0.1 100923
03:00+14wsw32905 0.1 100837
06:00+14sw22885 0.0 100824
09:00+19wsw227899 0.0 100989
12:00+25wnw025054 0.0 1008748
15:00+25se1156100 0.0 1008264
18:00+26w474965 0.0 1008966
21:00+17ssw119025 0.3 101114